Air Force Academy, CO

12:19 PM MDT on September 25, 2017 (GMT -0600)
Usaf Academy

Weather History for KAFF - February, 2014

Change the Weather History Date:

Sunday, February 2, 2014

  Actual Average Record
Temperature  
Mean Temperature 8 °F -  
Max Temperature 24 °F 39 °F 62 °F (2000)
Min Temperature -7 °F 19 °F -20 °F (2007)
Degree Days  
Heating Degree Days 56    
Moisture  
Dew Point 2 °F    
Average Humidity 80    
Maximum Humidity 92    
Minimum Humidity 53    
Precipitation  
Precipitation 0.00 in - - ()
Sea Level Pressure  
Sea Level Pressure 30.05 in    
Wind  
Wind Speed 4 mph (NE)    
Max Wind Speed 9 mph    
Max Gust Speed -    
Visibility 7 miles    
Events Snow    
Averages and records for this station are not official NWS values.
T = Trace of Precipitation, MM = Missing Value Source: NWS Daily Summary

Daily Weather History Graph

Daily Weather History Graph

Search for Another Location

Airport or City:

Trip Planner

Search our weather history database for the weather conditions in past years. The results will help you decide how hot, cold, wet, or windy it might be!

Date:

Astronomy

Feb. 02, 2014 Rise Set
Actual Time 7:04 AM MST 5:21 PM MST
Civil Twilight 6:36 AM MST 5:49 PM MST
Nautical Twilight 6:04 AM MST 6:21 PM MST
Astronomical Twilight 5:33 AM MST 6:53 PM MST
Moon 8:34 AM MST (2/2) 9:06 PM MST (2/2)
Length of Visible Light 11h 13m
Length of Day
10h 17m
Waxing Crescent, 12% of the Moon is Illuminated
Feb 2
Waxing Crescent
Feb 6
First Quarter
Feb 14
Full
Feb 22
Last Quarter
Mar 1
New

Hourly Weather History & Observations

Time (MST) Temp. Windchill Dew Point Humidity Pressure Visibility Wind Dir Wind Speed Gust Speed Precip Events Conditions
12:14 AM 10.4 °F 0.8 °F 6.8 °F 85% 30.00 in 7.0 mi South 5.8 mph - N/A Snow Light Snow
12:41 AM 10.4 °F 0.8 °F 6.8 °F 85% 30.00 in 8.0 mi SSE 5.8 mph - N/A   Overcast
12:42 AM 10.4 °F 2.2 °F 6.8 °F 85% 30.00 in 8.0 mi SSE 4.6 mph - N/A Snow Light Snow
12:58 AM 10.0 °F - 7.0 °F 87% 30.19 in 5.0 mi NE 1.2 mph - 0.00 in Snow Light Snow
1:03 AM 10.4 °F 4.0 °F 6.8 °F 85% 29.99 in 6.0 mi SE 3.5 mph - N/A   Overcast
1:04 AM 10.4 °F 4.0 °F 6.8 °F 85% 29.99 in 6.0 mi SSE 3.5 mph - N/A   Light Freezing Drizzle
1:06 AM 10.4 °F 2.2 °F 6.8 °F 85% 29.99 in 6.0 mi SE 4.6 mph - N/A Snow Light Snow
1:41 AM 10.4 °F 4.0 °F 6.8 °F 85% 29.99 in 4.0 mi ESE 3.5 mph - N/A Snow Light Snow
1:58 AM 9.7 °F - 6.4 °F 87% 30.19 in 4.0 mi SSE 2.3 mph - 0.00 in Snow Light Snow
2:03 AM 8.6 °F - 6.8 °F 92% 29.99 in 6.0 mi ENE 1.2 mph - N/A Snow Light Snow
2:13 AM 8.6 °F - 6.8 °F 92% 29.99 in 4.0 mi Variable 1.2 mph - N/A Snow Light Snow
2:23 AM 8.6 °F 2.0 °F 6.8 °F 92% 29.99 in 5.0 mi SE 3.5 mph - N/A Snow Light Snow
2:45 AM 8.6 °F - 5.0 °F 85% 29.98 in 9.0 mi Calm Calm - N/A   Overcast
2:46 AM 8.6 °F - 5.0 °F 85% 29.98 in 10.0 mi Calm Calm - N/A   Light Freezing Drizzle
2:58 AM 8.8 °F - 5.4 °F 86% 30.20 in 10.0 mi Calm Calm - 0.00 in   Light Freezing Drizzle
3:08 AM 8.6 °F 2.0 °F 5.0 °F 85% 29.98 in 6.0 mi SE 3.5 mph - N/A Snow Light Snow
3:18 AM 8.6 °F - 5.0 °F 85% 29.98 in 5.0 mi Variable 1.2 mph - N/A Snow Light Snow
3:26 AM 8.6 °F - 5.0 °F 85% 29.98 in 7.0 mi Calm Calm - N/A   Overcast
3:27 AM 8.6 °F - 5.0 °F 85% 29.98 in 7.0 mi Calm Calm - N/A   Light Freezing Drizzle
3:44 AM 8.6 °F - 5.0 °F 85% 29.98 in 7.0 mi NE 1.2 mph - N/A Snow Light Snow
3:54 AM 8.6 °F - 5.0 °F 85% 29.97 in 7.0 mi Variable 2.3 mph - N/A   Overcast
3:55 AM 8.6 °F - 5.0 °F 85% 29.97 in 6.0 mi East 1.2 mph - N/A Snow Light Snow
3:58 AM 8.2 °F - 4.8 °F 86% 30.20 in 6.0 mi Variable 2.3 mph - 0.00 in Snow Light Snow
4:07 AM 8.6 °F 2.0 °F 5.0 °F 85% 29.96 in 8.0 mi North 3.5 mph - N/A   Overcast
4:09 AM 8.6 °F 0.1 °F 5.0 °F 85% 29.96 in 8.0 mi NW 4.6 mph - N/A Snow Light Snow
4:33 AM 6.8 °F - 3.2 °F 85% 29.96 in 8.0 mi North 1.2 mph - N/A   Overcast
4:37 AM 6.8 °F -2.0 °F 3.2 °F 85% 29.96 in 9.0 mi NNE 4.6 mph - N/A Snow Light Snow
4:54 AM 3.2 °F -6.2 °F -0.4 °F 85% 29.96 in 9.0 mi NNE 4.6 mph - N/A   Overcast
4:58 AM 3.9 °F -5.3 °F -0.2 °F 83% 30.21 in 10.0 mi NNE 4.6 mph - 0.00 in   Overcast
5:11 AM 3.2 °F -6.2 °F -0.4 °F 85% 29.96 in 8.0 mi NNE 4.6 mph - N/A Snow Light Snow
5:20 AM 5.0 °F -5.6 °F 1.4 °F 85% 29.96 in 8.0 mi NNE 5.8 mph - N/A   Overcast
5:22 AM 5.0 °F -6.9 °F -0.4 °F 78% 29.96 in 9.0 mi NE 6.9 mph - N/A   Light Freezing Drizzle
5:50 AM 1.4 °F -11.3 °F -4.0 °F 78% 29.95 in 8.0 mi NE 6.9 mph - N/A   Overcast
5:58 AM 1.0 °F -8.7 °F -3.3 °F 82% 30.22 in 5.0 mi North 4.6 mph - 0.00 in   Haze
6:03 AM -0.4 °F -12.0 °F -4.0 °F 85% 29.94 in 4.0 mi North 5.8 mph - N/A   Haze
6:18 AM -0.4 °F -12.0 °F -5.8 °F 78% 29.95 in 2.0 mi North 5.8 mph - N/A   Haze
6:23 AM -2.2 °F -14.2 °F -5.8 °F 85% 29.95 in 1.5 mi North 5.8 mph - N/A   Haze
6:33 AM -2.2 °F -14.2 °F -7.6 °F 78% 29.95 in 1.0 mi North 5.8 mph - N/A   Haze
6:38 AM -2.2 °F -14.2 °F -7.6 °F 78% 29.95 in 1.5 mi North 5.8 mph - N/A   Haze
6:43 AM -4.0 °F -16.3 °F -9.4 °F 78% 29.96 in 3.0 mi North 5.8 mph - N/A   Haze
6:48 AM -5.8 °F -14.5 °F -11.2 °F 77% 29.96 in 6.0 mi North 3.5 mph - N/A   Haze
6:58 AM -6.2 °F - -11.2 °F 79% 30.28 in 9.0 mi North 2.3 mph - N/A   Clear
7:43 AM -7.6 °F -16.5 °F -13.0 °F 77% 29.97 in 4.0 mi NNW 3.5 mph - N/A   Haze
7:48 AM -7.6 °F -18.8 °F -13.0 °F 77% 29.97 in 2.5 mi North 4.6 mph - N/A   Haze
7:53 AM -7.6 °F -18.8 °F -13.0 °F 77% 29.98 in 2.0 mi North 4.6 mph - N/A   Haze
7:58 AM -7.2 °F -16.1 °F -12.5 °F 78% 30.32 in 2.0 mi NNW 3.5 mph - N/A   Haze
8:03 AM -7.6 °F -18.8 °F -13.0 °F 77% 29.97 in 4.0 mi NNW 4.6 mph - N/A   Haze
8:08 AM -7.6 °F -18.8 °F -13.0 °F 77% 29.98 in 10.0 mi NNW 4.6 mph - N/A   Clear
8:58 AM 1.2 °F -6.4 °F -2.7 °F 83% 30.28 in 10.0 mi NNE 3.5 mph - N/A   Clear
9:58 AM 8.2 °F - 4.6 °F 85% 30.27 in 10.0 mi Calm Calm - 0.00 in   Clear
10:58 AM 14.2 °F - 9.7 °F 82% 30.23 in 10.0 mi Calm Calm - N/A   Clear
11:58 AM 20.7 °F 11.9 °F 9.7 °F 63% 30.17 in 10.0 mi South 6.9 mph - N/A   Clear
12:58 PM 22.5 °F 16.3 °F 10.9 °F 61% 30.12 in 10.0 mi SSE 4.6 mph - N/A   Clear
1:32 PM 24.8 °F 16.1 °F 10.4 °F 54% 29.91 in 10.0 mi SSE 8.1 mph - N/A   Clear
1:42 PM 24.8 °F 15.3 °F 10.4 °F 54% 29.91 in 10.0 mi SSE 9.2 mph - N/A   Clear
1:58 PM 24.4 °F 15.6 °F 9.7 °F 53% 30.11 in 10.0 mi South 8.1 mph - 0.00 in   Clear
2:58 PM 24.6 °F 16.7 °F 10.8 °F 56% 30.09 in 10.0 mi South 6.9 mph - N/A   Clear
3:58 PM 22.5 °F 14.1 °F 10.0 °F 59% 30.12 in 10.0 mi South 6.9 mph - N/A   Clear
4:58 PM 19.0 °F 9.0 °F 11.5 °F 72% 30.15 in 10.0 mi South 8.1 mph - N/A   Clear
5:58 PM 15.4 °F 8.1 °F 10.8 °F 82% 30.18 in 10.0 mi South 4.6 mph - N/A   Clear
6:58 PM 12.9 °F - 9.1 °F 85% 30.25 in 10.0 mi Variable 1.2 mph - N/A   Clear
7:58 PM 5.5 °F -8.4 °F 1.6 °F 84% 30.27 in 10.0 mi North 9.2 mph - N/A   Clear
8:58 PM 4.5 °F -6.3 °F 0.1 °F 82% 30.22 in 10.0 mi North 5.8 mph - N/A   Clear
9:58 PM 5.2 °F -6.7 °F 0.7 °F 82% 30.17 in 10.0 mi North 6.9 mph - N/A   Clear
10:58 PM 3.7 °F -8.4 °F -0.8 °F 82% 30.13 in 10.0 mi NNW 6.9 mph - N/A   Partly Cloudy
11:33 PM 5.0 °F -8.1 °F -0.4 °F 78% 29.84 in 10.0 mi NNE 8.1 mph - N/A   Mostly Cloudy
11:58 PM 3.9 °F -5.3 °F -0.8 °F 81% 30.08 in 10.0 mi North 4.6 mph - N/A   Mostly Cloudy